[[{"header":{"parameterUnit":"m.s-1","parameterCategory":1,"la1":30.2991,"la2":30.254,"lo1":-89.0895,"lo2":-89.0444,"dy":0.0017,"dx":0.0017,"nx":28,"ny":28,"refTime":"2024-10-15T03:00:00:Z","depth":0,"parameterNumber":2,"parameterNumberName":"U-component_of_WINDS"},"data":[0,0,0,0,0,0,0,0,0,0,0,0,0,0,0,0,0,0,0,0,0,0,0,0,0,0,0,0,0,0,0,0,0,0,0,0,0,0,0,0,0,0,0,0,0,0,0,0,0,0,0,0,0,0,0,0,0,0,-1.3843,-1.3843,0,-1.3794,-1.3793,-1.3793,-1.3757,-1.3757,-1.3757,-1.3757,-1.3704,-1.3703,-1.3702,0,0,0,0,0,0,0,0,0,0,0,0,0,-1.3903,-1.3902,-1.3843,-1.3843,-1.3842,-1.3794,-1.3793,-1.3793,-1.3757,-1.3757,-1.3757,-1.3756,-1.3705,-1.3703,-1.3702,0,0,0,0,0,0,0,0,0,0,0,0,0,-1.3868,-1.3902,-1.3843,-1.3819,-1.3816,-1.3794,-1.3793,-1.3793,-1.3758,-1.3757,-1.3757,-1.3756,-1.3705,-1.3703,-1.3702,-1.37,0,0,-1.3697,-1.3696,0,0,0,0,0,0,0,0,-1.387,-1.3866,-1.3823,-1.382,-1.3817,-1.3781,-1.3795,-1.3761,-1.3758,-1.378,-1.3757,-1.3756,-1.373,-1.3726,-1.3718,-1.3698,-1.3695,-1.3697,-1.3695,-1.3695,-1.3694,0,0,0,0,0,0,0,-1.3873,-1.3868,-1.3824,-1.3822,-1.3819,-1.3809,-1.3803,-1.3789,-1.3758,-1.3778,-1.3775,-1.377,-1.3729,-1.372,-1.3717,-1.3695,-1.3697,-1.3695,-1.3694,-1.3693,-1.3667,-1.3667,0,0,0,0,0,0,-1.3879,-1.387,-1.3825,-1.3822,-1.3843,-1.3808,-1.3802,-1.3793,-1.3758,-1.3752,-1.377,-1.3768,-1.3723,-1.3719,-1.3715,-1.3709,-1.3695,-1.3693,-1.3692,-1.3667,-1.3667,-1.3668,0,0,0,0,0,0,-1.3881,-1.3876,-1.3827,-1.3845,-1.3838,-1.3808,-1.3798,-1.3793,-1.3784,-1.3752,-1.3746,-1.3767,-1.3722,-1.3717,-1.3703,-1.3706,-1.3692,-1.3691,-1.3666,-1.3667,-1.3667,-1.3698,0,0,0,0,0,0,-1.3883,-1.3876,-1.3876,-1.3846,-1.3838,-1.3818,-1.3798,-1.3792,-1.3781,-1.3778,-1.3748,-1.3742,-1.3722,-1.3706,-1.3702,-1.3704,-1.369,-1.3666,-1.3667,-1.3667,-1.3696,-1.3699,-1.3702,0,0,0,0,0,-1.3885,-1.3887,-1.3877,-1.3871,-1.3837,-1.3818,-1.3814,-1.379,-1.3782,-1.3781,-1.376,-1.3743,-1.3707,-1.3705,-1.37,-1.3701,-1.3666,-1.3667,-1.3667,-1.3695,-1.3699,-1.3702,0,0,0,0,0,0,-1.3919,-1.3882,-1.3871,-1.3863,-1.3844,-1.3813,-1.3811,-1.3795,-1.3778,-1.3776,-1.3747,-1.374,-1.3729,-1.3714,-1.3713,-1.3696,-1.3684,-1.3684,-1.3707,-1.371,-1.3713,-1.3716,-1.3688,0,0,0,0,0,-1.3925,-1.3914,-1.3883,-1.3879,-1.387,-1.3842,-1.3833,-1.3816,-1.3795,-1.3787,-1.3766,-1.3745,-1.3728,-1.3718,-1.3702,-1.3694,-1.3685,-1.3692,-1.3694,-1.3697,-1.3697,-1.3689,-1.3691,-1.367,-1.367,-1.367,0,0,-1.3939,-1.3917,-1.3912,-1.3885,-1.3868,-1.3856,-1.3836,-1.3824,-1.3814,-1.3785,-1.3771,-1.3754,-1.3729,-1.3718,-1.3712,-1.3705,-1.3701,-1.3698,-1.37,-1.3698,-1.369,-1.3692,-1.3694,-1.367,-1.367,-1.367,0,0,-1.3957,-1.394,-1.3935,-1.3918,-1.3893,-1.3874,-1.3873,-1.3843,-1.3831,-1.3816,-1.3793,-1.378,-1.3754,-1.3736,-1.3724,-1.3733,-1.3716,-1.3728,-1.3742,-1.3735,-1.3736,-1.3737,-1.3739,-1.3741,-1.3728,-1.3728,-1.3728,0,-1.3977,-1.3958,-1.3933,-1.3923,-1.3911,-1.3884,-1.3877,-1.3861,-1.3832,-1.3824,-1.3816,-1.378,-1.3762,-1.3745,-1.3747,-1.3738,-1.3734,-1.3731,-1.3738,-1.3739,-1.374,-1.3741,-1.3742,-1.373,-1.3729,-1.3729,-1.3729,0,-1.3983,-1.397,-1.3968,-1.3941,-1.3928,-1.392,-1.3892,-1.3882,-1.3866,-1.3847,-1.3831,-1.3808,-1.3785,-1.378,-1.3764,-1.376,-1.3756,-1.3744,-1.3731,-1.3744,-1.3745,-1.3745,-1.3732,-1.3731,-1.3731,-1.373,0,0,-1.4022,-1.398,-1.3979,-1.3966,-1.3935,-1.3924,-1.3913,-1.3891,-1.3882,-1.3862,-1.3851,-1.3828,-1.3816,-1.3802,-1.3783,-1.3777,-1.3784,-1.3765,-1.3764,-1.3769,-1.3776,-1.3785,-1.3786,-1.3772,-1.3772,-1.3772,-1.3777,0,-1.4035,-1.4015,-1.3991,-1.3979,-1.3965,-1.3939,-1.3929,-1.3908,-1.389,-1.3875,-1.3854,-1.3837,-1.3823,-1.3814,-1.3807,-1.3785,-1.3785,-1.3784,-1.376,-1.376,-1.3767,-1.3787,-1.3797,-1.3802,-1.3778,-1.3778,-1.3778,0,-1.4047,-1.4029,-1.4015,-1.3984,-1.3978,-1.3969,-1.3946,-1.3933,-1.3908,-1.3895,-1.3878,-1.3858,-1.3843,-1.3832,-1.3809,-1.3809,-1.3798,-1.3785,-1.3785,-1.3782,-1.377,-1.3783,-1.3804,-1.3805,-1.3778,-1.3778,-1.3778,0,-1.4076,-1.4047,-1.4035,-1.4024,-1.3988,-1.3982,-1.3967,-1.3942,-1.3929,-1.3908,-1.3899,-1.3877,-1.3864,-1.3847,-1.382,-1.3815,-1.38,-1.3787,-1.3788,-1.3788,-1.3786,-1.3787,-1.3805,-1.378,-1.378,-1.378,-1.378,0,-1.4092,-1.4085,-1.4047,-1.4039,-1.4029,-1.4001,-1.3992,-1.3973,-1.3951,-1.3938,-1.3913,-1.3901,-1.3867,-1.3851,-1.383,-1.3814,-1.3809,-1.3796,-1.3791,-1.3798,-1.38,-1.379,-1.3789,-1.378,-1.378,-1.378,-1.378,0,-1.4123,-1.4097,-1.4082,-1.4048,-1.404,-1.4034,-1.4004,-1.3995,-1.3974,-1.3958,-1.3953,-1.392,-1.3899,-1.3872,-1.3842,-1.3828,-1.3814,-1.3805,-1.3822,-1.3819,-1.3821,-1.3821,-1.3833,-1.3833,-1.3809,-1.3809,-1.381,0,-1.4135,-1.4128,-1.4094,-1.4084,-1.4069,-1.4053,-1.404,-1.4011,-1.3999,-1.3969,-1.3962,-1.394,-1.392,-1.3887,-1.386,-1.3837,-1.3827,-1.3833,-1.3823,-1.383,-1.3826,-1.3826,-1.3825,-1.3836,-1.3836,-1.3836,-1.3837,0,-1.4158,-1.4146,-1.4129,-1.4106,-1.4092,-1.4073,-1.4052,-1.4045,-1.4012,-1.3998,-1.3977,-1.3961,-1.393,-1.3907,-1.388,-1.3862,-1.3843,-1.384,-1.3838,-1.3846,-1.3856,-1.3849,-1.3828,-1.384,-1.3839,-1.3839,-1.3839,-1.3839,-1.4179,-1.4171,-1.4146,-1.4127,-1.4108,-1.4089,-1.4079,-1.4057,-1.4039,-1.4012,-1.3995,-1.3974,-1.3947,-1.3908,-1.3891,-1.3872,-1.3865,-1.3864,-1.3863,-1.3863,-1.3865,-1.3859,-1.3867,-1.3867,-1.3867,-1.3867,-1.3867,0,-1.42,-1.4182,-1.4165,-1.4137,-1.4122,-1.4106,-1.4082,-1.407,-1.4052,-1.4028,-1.4009,-1.3983,-1.396,-1.3931,-1.3905,-1.3896,-1.3887,-1.389,-1.389,-1.3886,-1.3874,-1.3877,-1.3898,-1.3898,-1.3898,-1.3898,-1.3898,-1.3898,-1.421,-1.4195,-1.4179,-1.4155,-1.4136,-1.4116,-1.4103,-1.4085,-1.4066,-1.4039,-1.402,-1.4001,-1.3974,-1.3946,-1.3923,-1.3915,-1.3906,-1.3913,-1.3902,-1.389,-1.3887,-1.3885,-1.3888,-1.3911,-1.3911,-1.3916,-1.3916,-1.3916]},{"header":{"parameterUnit":"m.s-1","parameterCategory":1,"la1":30.2991,"la2":30.254,"lo1":-89.0895,"lo2":-89.0444,"dy":0.0017,"dx":0.0017,"nx":28,"ny":28,"refTime":"2024-10-15T03:00:00:Z","depth":0,"parameterNumber":3,"parameterNumberName":"V-component_of_WINDS"},"data":[0,0,0,0,0,0,0,0,0,0,0,0,0,0,0,0,0,0,0,0,0,0,0,0,0,0,0,0,0,0,0,0,0,0,0,0,0,0,0,0,0,0,0,0,0,0,0,0,0,0,0,0,0,0,0,0,0,0,-2.913,-2.9132,0,-2.933,-2.9332,-2.9335,-2.9453,-2.9454,-2.9454,-2.9455,-2.9652,-2.9657,-2.9662,0,0,0,0,0,0,0,0,0,0,0,0,0,-2.8847,-2.8852,-2.913,-2.9132,-2.9135,-2.933,-2.9333,-2.9335,-2.9453,-2.9454,-2.9454,-2.9455,-2.9651,-2.9656,-2.9662,0,0,0,0,0,0,0,0,0,0,0,0,0,-2.9,-2.8853,-2.9129,-2.9217,-2.9227,-2.9329,-2.9333,-2.9336,-2.9453,-2.9454,-2.9455,-2.9455,-2.9649,-2.9656,-2.9663,-2.9691,0,0,-2.9685,-2.9688,0,0,0,0,0,0,0,0,-2.8992,-2.9011,-2.9202,-2.9212,-2.9223,-2.9368,-2.9305,-2.9455,-2.9453,-2.9367,-2.9455,-2.9456,-2.9556,-2.9571,-2.9607,-2.97,-2.9708,-2.9685,-2.969,-2.9693,-2.9695,0,0,0,0,0,0,0,-2.8981,-2.9003,-2.9209,-2.9205,-2.9217,-2.9246,-2.9269,-2.9334,-2.9454,-2.9374,-2.9384,-2.9406,-2.9562,-2.96,-2.9612,-2.9711,-2.9685,-2.9691,-2.9696,-2.9699,-2.9842,-2.9842,0,0,0,0,0,0,-2.8957,-2.8993,-2.9203,-2.9215,-2.9107,-2.925,-2.9276,-2.932,-2.9454,-2.9475,-2.9405,-2.9411,-2.9587,-2.9604,-2.962,-2.9664,-2.9693,-2.9699,-2.9703,-2.9842,-2.9842,-2.9841,0,0,0,0,0,0,-2.895,-2.8974,-2.9195,-2.9107,-2.9137,-2.9255,-2.9303,-2.9324,-2.9361,-2.9478,-2.9499,-2.9421,-2.9588,-2.961,-2.9674,-2.9672,-2.9702,-2.9709,-2.9843,-2.9842,-2.9842,-2.975,0,0,0,0,0,0,-2.8942,-2.8971,-2.8983,-2.9106,-2.9141,-2.9246,-2.9303,-2.9327,-2.9374,-2.9383,-2.9498,-2.9518,-2.9591,-2.9662,-2.9681,-2.9682,-2.9714,-2.9844,-2.9843,-2.9842,-2.9753,-2.9746,-2.974,0,0,0,0,0,-2.8931,-2.8947,-2.8983,-2.9008,-2.9159,-2.9245,-2.9265,-2.935,-2.9373,-2.9387,-2.9462,-2.9514,-2.967,-2.9668,-2.969,-2.9693,-2.9844,-2.9843,-2.9842,-2.9756,-2.9747,-2.974,0,0,0,0,0,0,-2.8816,-2.8964,-2.9006,-2.9062,-2.9141,-2.9265,-2.9284,-2.9337,-2.9409,-2.9414,-2.9515,-2.954,-2.9594,-2.9651,-2.9646,-2.973,-2.9763,-2.9766,-2.969,-2.9683,-2.9676,-2.9661,-2.972,0,0,0,0,0,-2.8799,-2.8858,-2.8983,-2.9021,-2.9058,-2.9164,-2.9205,-2.9265,-2.9349,-2.9381,-2.9461,-2.9539,-2.9607,-2.9648,-2.9716,-2.9763,-2.9791,-2.9777,-2.977,-2.9764,-2.9764,-2.9797,-2.9793,-2.9838,-2.9838,-2.9838,0,0,-2.876,-2.8848,-2.8879,-2.9,-2.9068,-2.9127,-2.9191,-2.9249,-2.9294,-2.939,-2.9456,-2.9518,-2.9612,-2.9669,-2.9698,-2.9717,-2.9759,-2.9762,-2.9756,-2.9761,-2.9795,-2.9791,-2.9787,-2.9837,-2.9837,-2.9837,0,0,-2.872,-2.8793,-2.8834,-2.8902,-2.9006,-2.9077,-2.9087,-2.9205,-2.9251,-2.932,-2.9395,-2.9449,-2.9561,-2.9627,-2.9674,-2.9667,-2.9718,-2.9686,-2.9648,-2.9679,-2.9675,-2.9673,-2.9671,-2.9669,-2.9687,-2.9686,-2.9686,0,-2.8659,-2.8752,-2.8847,-2.8903,-2.8955,-2.905,-2.9092,-2.9153,-2.9272,-2.9305,-2.9327,-2.9474,-2.9543,-2.9618,-2.9617,-2.9652,-2.9667,-2.9672,-2.9669,-2.9667,-2.9666,-2.9665,-2.9664,-2.9682,-2.9682,-2.9683,-2.9683,0,-2.8672,-2.8736,-2.8756,-2.8873,-2.8928,-2.8976,-2.9079,-2.9123,-2.9179,-2.9248,-2.9319,-2.9408,-2.9497,-2.9519,-2.9573,-2.9603,-2.9612,-2.965,-2.9685,-2.9655,-2.9657,-2.9657,-2.9675,-2.9677,-2.9678,-2.9679,0,0,-2.856,-2.8735,-2.874,-2.8797,-2.8921,-2.8971,-2.9026,-2.9117,-2.9153,-2.9233,-2.9281,-2.9378,-2.9415,-2.9469,-2.9532,-2.9559,-2.9549,-2.9594,-2.9598,-2.9583,-2.959,-2.9561,-2.9559,-2.9586,-2.9586,-2.9586,-2.9583,0,-2.8538,-2.8642,-2.8733,-2.8803,-2.8864,-2.8958,-2.9006,-2.9087,-2.9154,-2.9216,-2.929,-2.9357,-2.9401,-2.9435,-2.9466,-2.9544,-2.9552,-2.9545,-2.963,-2.9632,-2.9603,-2.9559,-2.9527,-2.9519,-2.9584,-2.9584,-2.9584,0,-2.8525,-2.8607,-2.8684,-2.8807,-2.8836,-2.8877,-2.897,-2.9028,-2.9123,-2.9171,-2.9235,-2.9302,-2.9364,-2.9396,-2.9483,-2.9477,-2.9518,-2.9562,-2.9564,-2.9573,-2.9605,-2.9568,-2.9519,-2.9517,-2.9585,-2.9585,-2.9585,0,-2.8436,-2.8565,-2.863,-2.8675,-2.8819,-2.8847,-2.8908,-2.9005,-2.9055,-2.9137,-2.9171,-2.9256,-2.9303,-2.9368,-2.9457,-2.9471,-2.9536,-2.9574,-2.9577,-2.9574,-2.9584,-2.9582,-2.954,-2.9611,-2.9611,-2.9611,-2.9611,0,-2.8402,-2.8445,-2.8593,-2.8631,-2.8684,-2.8789,-2.8838,-2.8907,-2.8994,-2.9048,-2.9134,-2.9183,-2.9299,-2.9362,-2.9432,-2.9495,-2.9515,-2.9555,-2.9573,-2.9547,-2.9541,-2.9573,-2.9576,-2.9611,-2.9611,-2.9611,-2.9611,0,-2.8309,-2.841,-2.8486,-2.862,-2.8655,-2.8688,-2.8802,-2.8844,-2.8919,-2.8987,-2.9009,-2.9126,-2.9205,-2.9302,-2.941,-2.9458,-2.9514,-2.9542,-2.9483,-2.9493,-2.9491,-2.949,-2.9467,-2.947,-2.9539,-2.9538,-2.9537,0,-2.8279,-2.8316,-2.8456,-2.8501,-2.8561,-2.863,-2.8684,-2.879,-2.8842,-2.8958,-2.8986,-2.9073,-2.9148,-2.927,-2.9364,-2.9449,-2.9478,-2.9465,-2.9491,-2.9465,-2.9479,-2.9475,-2.948,-2.9457,-2.9455,-2.9454,-2.9454,0,-2.8216,-2.8266,-2.8341,-2.8436,-2.8499,-2.8577,-2.8659,-2.869,-2.8814,-2.8868,-2.8953,-2.9011,-2.9126,-2.9211,-2.931,-2.9372,-2.9433,-2.9446,-2.9451,-2.9424,-2.9388,-2.9408,-2.9463,-2.9445,-2.9446,-2.9446,-2.9447,-2.9447,-2.8154,-2.8193,-2.8299,-2.8382,-2.8456,-2.8533,-2.858,-2.8664,-2.8737,-2.8841,-2.89,-2.8983,-2.9082,-2.9221,-2.9282,-2.9349,-2.937,-2.9377,-2.9379,-2.9379,-2.9372,-2.938,-2.9367,-2.9367,-2.9367,-2.9368,-2.9368,0,-2.8096,-2.8171,-2.8246,-2.8361,-2.8427,-2.8484,-2.858,-2.863,-2.8703,-2.8792,-2.8866,-2.8965,-2.905,-2.9154,-2.9246,-2.9279,-2.931,-2.9299,-2.9297,-2.9311,-2.9346,-2.9333,-2.9274,-2.9274,-2.9274,-2.9274,-2.9274,-2.9274,-2.8073,-2.8142,-2.8206,-2.8314,-2.8389,-2.8474,-2.8524,-2.8595,-2.8668,-2.8775,-2.8848,-2.8917,-2.9012,-2.9113,-2.9194,-2.9223,-2.9252,-2.9233,-2.9269,-2.93,-2.9308,-2.9316,-2.9304,-2.9239,-2.9239,-2.9229,-2.9229,-2.9229]}]]